Find Hai Yang 2-03

NORAD ID: 46469 Int'l Des: 2020-066 Owner: GYZ/CASC Country: CN operational
LEOCIRCULAR

Live Position

Loading 3D Globe...

About Hai Yang 2-03

Description loading...

Upcoming Passes

Passes for default location (London). Set your location on the main map for personalized predictions.

Altitude History

Loading altitude history...

Two-Line Element Set

1 46469U 20066A 26104.98013267 -.00000229 00000-0 -13371-3 0 9995
2 46469 65.9999 12.6555 0011307 244.7952 115.1944 13.83372733280754
Epoch: Apr 14, 2026 • Age: 7 hours

Current Status

Altitude 969.8 km
Velocity 7.37 km/s
Sub-Earth Point 61.90°N, 122.16°E
Launch Date Sep 21, 2020
Age 5.5 years
Type other

Technical Details

Classification Payload
Mass 1500.00 kg
Dry Mass 1500.00 kg
Total Mass 1500.00 kg
Length 1.00 m
Diameter 1.00 m
Span 4.00 m
Shape Box + 2 Pan
Manufacturer SISE
Bus Type CAST-968
Phase Status In Orbit
Owner/State GYZ/CASC/CN

Most Searched